Location: Waco, TX
(31.5480°N, 97.1670°W)
Time: 22:44:38
(UTC-05:00)

ISS - Pass Details

Date: 17 September 2018
Orbit: 403 x 408 km, 51.6° (Epoch: 25 September)

Event Time Altitude Azimuth Distance (km) Brightness Sun altitude
Rises 07:11:36 0° 298° (WNW) 2,316 -0.5 -1.3°
Reaches altitude 10° 07:14:06 10° 279° (W) 1,453 -1.6 -0.8°
Maximum altitude 07:16:26 18° 233° (SW) 1,050 -2.2 -0.3°
Drops below altitude 10° 07:18:46 10° 186° (S) 1,445 -1.1 0.2°
Sets 07:21:14 0° 167° (SSE) 2,298 0.1 0.7°
